STARLINK-4605, 53616

Orbit data source: Space-Track

STARLINK-4605, 53616 is a payload satellite owned by SpaceX/Seattle (US) in LEO that was launched on Sun, 28 Aug 2022 UTC via an FALCON 9 launch vehicle from the Air Force Eastern Test Range (AFETR). Payload-class satellites include a variety of spacecraft equipped with specific instruments for various scientific and technological missions. These include communications satellites like Starlink; space stations such as the ISS; scientific satellites like the Hubble; Earth observation satellites from companies like Planet Labs, Umbra, and HawkEye 360; GPS; miniature CubeSats for education and research; and military/defense satellites.

Loading next visibility...
Identifier
53616, 2022-104AE
Orbit
LEO
Country
Flag of USUS
Related business
Manufacturer
SpaceX/Seattle
Mission
Operational Commercial Communications
Bus & Motor
STARLINK, Unknown motor
Mass
300 kg wet, ~290 kg dry
Launch date (UTC)
2022-08-28 (3 years ago)
Launch vehicle
FALCON 9
Launch site
Air Force Eastern Test Range (AFETR)
Object type
Payload
Rocket body
Debris
Shape & HBR
Box + 1 Pan, 10.1 m
Radar Cross Section
13.562 m², Large (>1 m²)

Expand to show TLE details & history
Last TLE update: 17 hours ago

TLE from 17 hours ago
0 STARLINK-4605
1 53616U 22104AE  25298.22382890  .00004100  00000-0  27570-3 0  9999
2 53616  53.2159 112.1241 0001327  95.6002 264.5142 15.08822815175439
Epoch: 2025-10-25T05:22Z
TLE epoch observation values (Epoch: 2025-10-25T05:22:18.816Z)
Latitude
-0.00001°
Longitude
-2.31176°
Altitude
540.781 km
Speed
7.593 km/s
True Right ascension
07h 28m 29s
True Declination
0° 00' 00"
Sunlit
Object was in daylight at epoch
Visualization orbit readout
Latitude
Unknown
Longitude
Unknown
Altitude
Unknown
Speed
Unknown
Apparent Right ascension
Unknown
Apparent Declination
Unknown
Sunlit
N/A
Visualization observer readout
Local Sidereal Time
17:51:12
Azimuth
Unknown
Elevation
Unknown
Doppler factor
Unknown
Orbital elements
Apogee altitude
540.959 km
Perigee altitude
539.123 km
Semi-major axis
6,918.178 km
Eccentricity
0.00013
Inclination
53.2159°
RAAN
112.1241°
Arg. of periapsis
95.6002°
True anomaly
264.49906°
Mean anomaly
264.5142°
Eccentric anomaly
264.50663°
Mean motion
3.77186 °/min
Orbital period
95.44 mins
BSTAR
0.0002757
Loading maneuver chart data...
Computing Atmospheric mass density...
Loading historical data...
Loading historical data...
Loading historical data...
Loading historical data...
Loading historical data...
Loading historical data...
Loading historical data...

Documentation

Showing up to 5 results
|